Weather History for MRLM - November, 2013

Change the Weather History Date:

Saturday, November 23, 2013

  Actual Average Record
Temperature  
Mean Temperature 79 °F -  
Max Temperature 86 °F 80 °F 87 °F (2003)
Min Temperature 72 °F 72 °F 68 °F (2010)
Cooling Degree Days 14    
Growing Degree Days 29 (Base 50)    
Moisture  
Dew Point 73 °F    
Average Humidity 77    
Maximum Humidity 94    
Minimum Humidity 62    
Precipitation  
Precipitation 0.08 in 0.52 in - ()
Sea Level Pressure  
Sea Level Pressure 29.84 in    
Wind  
Wind Speed 4 mph ()    
Max Wind Speed 18 mph    
Max Gust Speed -    
Visibility 6.6 miles    
Events Rain    
Averages and records for this station are not official NWS values.
T = Trace of Precipitation, MM = Missing Value Source: Averaged Metar Reports

Daily Weather History Graph

Daily Weather History Graph

Search for Another Location

Airport or City:

Trip Planner

Search our weather history database for the weather conditions in past years. The results will help you decide how hot, cold, wet, or windy it might be!

Date:

Astronomy

Nov. 23, 2013 Rise Set
Actual Time 5:29 AM CST 5:07 PM CST
Civil Twilight 5:07 AM CST 5:29 PM CST
Nautical Twilight 4:41 AM CST 5:55 PM CST
Astronomical Twilight 4:15 AM CST 6:21 PM CST
Moon 10:10 PM CST (11/23) 10:06 AM CST (11/23)
Length of Visible Light 12h 22m
Length of Day
11h 37m
Waning Gibbous, 69% of the Moon is Illuminated
Nov 23
Waning Gibbous
Nov 25
Last Quarter
Dec 2
New
Dec 9
First Quarter
Dec 17
Full

Hourly Weather History & Observations

Time (CST) Temp. Heat Index Dew Point Humidity Pressure Visibility Wind Dir Wind Speed Gust Speed Precip Events Conditions
6:00 AM 73 °F - 71 °F 92% 29.87 in 9 mi NNW 1.2 mph - -   Scattered Clouds
6:00 AM 73.4 °F - 71.6 °F 94% 29.86 in 6.2 mi NNW 1.2 mph - N/A   Mostly Cloudy
7:00 AM 75.2 °F - 71.6 °F 89% 29.87 in 6.2 mi WSW 3.5 mph - N/A   Scattered Clouds
8:00 AM 78.8 °F - 73.4 °F 83% 29.89 in 6.2 mi NW 2.3 mph - N/A   Drizzle
9:00 AM 85 °F - 74 °F 62% 29.90 in 9 mi NNW 2.3 mph - - Rain Light Drizzle
9:00 AM 84.2 °F 90.9 °F 73.4 °F 70% 29.88 in 6.2 mi NNW 2.3 mph - N/A   Mostly Cloudy
10:00 AM 84.2 °F 90.9 °F 73.4 °F 70% 29.88 in 6.2 mi NNE 9.2 mph - N/A   Mostly Cloudy
10:20 AM 78.8 °F - 73.4 °F 83% 29.89 in 0.6 mi NE 18.4 mph - N/A Rain Heavy Rain
11:00 AM 78.8 °F - 73.4 °F 83% 29.87 in 6.2 mi ESE 10.4 mph - N/A   Drizzle
12:00 PM 84 °F - 74 °F 66% 29.85 in 9 mi SW 3.5 mph - - Rain Light Drizzle
12:00 PM 84.2 °F 92.3 °F 75.2 °F 74% 29.83 in 6.2 mi SW 3.5 mph - N/A   Mostly Cloudy
1:00 PM 84.2 °F 92.3 °F 75.2 °F 74% 29.81 in - North - - N/A   Mostly Cloudy
2:00 PM 84.2 °F 92.3 °F 75.2 °F 74% 29.79 in 6.2 mi East 11.5 mph - N/A   Scattered Clouds
3:00 PM 83 °F - 72 °F 62% 29.80 in 9 mi North 8.1 mph - -   Overcast
3:00 PM 82.4 °F 87.2 °F 71.6 °F 70% 29.78 in 6.2 mi North 8.1 mph - N/A   Scattered Clouds
4:00 PM 82.4 °F 88.2 °F 73.4 °F 74% 29.79 in 6.2 mi West 3.5 mph - N/A   Mostly Cloudy
5:00 PM 80.6 °F 85.4 °F 73.4 °F 79% 29.81 in 6.2 mi WNW 1.2 mph - N/A   Scattered Clouds
6:00 PM 79 °F - 73 °F 78% 29.83 in 8 mi NW 2.3 mph - - Rain Light Drizzle
6:00 PM 78.8 °F - 73.4 °F 83% 29.82 in 6.2 mi NW 2.3 mph - N/A   Drizzle